Location: Augirein
(42.9320°N, 0.9181°E)
Time: 20:33:51
(UTC+00:00)

USA 306 - Pass Details

Date: 20 June 2021
Orbit: 566 x 573 km, 54.0° (Epoch: 16 July)

Event Time Altitude Azimuth Distance (km) Brightness Sun altitude
Exits shadow 01:31:13 58° 199° (SSW) 665 2.8 -20.2°
Maximum altitude 01:31:54 73° 140° (SE) 598 2.8 -20.2°
Drops below altitude 10° 01:36:09 10° 55° (NE) 1,872 6.4 -19.9°
Sets 01:38:24 0° 54° (NE) 2,771 7.4 -19.7°
